Regional Weather Roundup
Issued by NWS Boston, MA

Home | Current Version | Previous Version | Text Only | Print | Product List | Glossary On
Versions: 1 2 3 4 5 6 7 8 9 10 11 12 13 14 15 16 17 18 19 20 21 22 23 24 25 26 27 28
000
ASUS41 KBOX 201010
RWRBOX

REGIONAL WEATHER ROUNDUP
NATIONAL WEATHER SERVICE TAUNTON MA
500 AM EST FRI JAN 20 2017

NOTE:  "FAIR" INDICATES FEW OR NO CLOUDS BELOW 12,000 FEET WITH NO
SIGNIFICANT WEATHER AND/OR OBSTRUCTIONS TO VISIBILITY.

MAZALL-201100-
EASTERN MASSACHUSETTS

CITY           SKY/WX    TMP DP  RH WIND       PRES   REMARKS
BOSTON         CLOUDY    36  30  79 NW7       30.02S WCI  30
BEVERLY        CLOUDY    34  30  85 NW3       30.01R
LAWRENCE       CLOUDY    33  29  85 CALM      30.03R
BEDFORD        CLOUDY    31  27  85 CALM      30.01S
BLUE HILL        N/A     31  27  85 N8        29.98S WCI  23
NORWOOD        CLOUDY    32  30  92 CALM      30.02S
MARSHFIELD     CLOUDY    36  30  80 W3        30.01S
PLYMOUTH       CLOUDY    34  29  82 N5        30.01F WCI  30
TAUNTON        CLOUDY    31  28  89 CALM      30.01F
NEW BEDFORD    CLOUDY    32  29  88 CALM      30.00F
$$

MAZALL-201100-
CAPE COD AND THE ISLANDS

CITY           SKY/WX    TMP DP  RH WIND       PRES   REMARKS
FALMOUTH       CLOUDY    34  30  86 MISG      30.01F
HYANNIS        CLOUDY    38  32  79 W5        29.99S
CHATHAM        CLOUDY    39  35  86 CALM      30.01R
PROVINCETOWN   CLOUDY    41  31  67 N8        30.02R
NANTUCKET      CLOUDY    39  33  79 NW7       30.00R
MARTHAS VNYRD  CLOUDY    37  32  82 NW7       30.00F WCI  32
$$

MAZALL-201100-
CENTRAL AND WESTERN MASSACHUSETTS

CITY           SKY/WX    TMP DP  RH WIND       PRES   REMARKS
WORCESTER      CLOUDY    30  26  85 NW3       29.98S
FITCHBURG      CLOUDY    26  24  92 CALM      30.02R
ORANGE         CLOUDY    32  31  96 CALM      30.00S
SPRINGFIELD    CLOUDY    33  31  91 CALM      30.00S
WESTFIELD      CLOUDY    33  32  96 CALM      30.01S
NORTH ADAMS    CLOUDY    33  31  92 CALM      29.99S
PITTSFIELD     CLOUDY    33  28  81 SW3       29.95F
$$

RIZALL-201100-
RHODE ISLAND

CITY           SKY/WX    TMP DP  RH WIND       PRES   REMARKS
PROVIDENCE     CLEAR     32  26  78 CALM      30.02F
NEWPORT        CLEAR     31  28  89 CALM      30.01S
SMITHFIELD     CLEAR     27  25  92 N5        30.01S WCI  22
WESTERLY       CLOUDY    38  31  76 CALM      30.02F
$$

CTZALL-201100-
CONNECTICUT

CITY           SKY/WX    TMP DP  RH WIND       PRES   REMARKS
BRADLEY INTL   CLOUDY    36  31  82 CALM      30.02S
HARTFORD       CLOUDY    36  32  85 CALM      30.02F
BRIDGEPORT     CLOUDY    41  31  67 CALM      30.01F
DANBURY        CLOUDY    37  28  70 CALM      30.01F
GROTON         CLOUDY    36  32  85 NE3       30.01F
NEW HAVEN      CLOUDY    39  32  76 CALM      30.01F
CHESTER        CLOUDY    37  32  81 CALM      30.00F
MERIDEN        CLOUDY    36  31  82 CALM      30.02S
WILLIMANTIC    CLOUDY    33  31  92 E3        30.02F
OXFORD         CLOUDY    36  28  75 CALM      30.01S
$$

MEZ002-015-021-024-NHZ003-005-008-011-012-014-VTZ005-008-201100-
NORTHERN NEW ENGLAND

CITY           SKY/WX    TMP DP  RH WIND       PRES   REMARKS
PORTLAND ME    PTCLDY    28  24  85 CALM      30.01R
BANGOR ME      CLOUDY    30  27  88 CALM      29.94S
CONCORD NH     CLOUDY    24  22  91 CALM      30.01S
MANCHESTER NH  NOT AVBL
NASHUA NH      NOT AVBL
PORTSMOUTH NH  CLOUDY    33  29  88 CALM      30.01R
JAFFREY NH     NOT AVBL
KEENE NH       NOT AVBL
BURLINGTON VT  CLOUDY    35  29  78 N5        29.99F WCI  31
MT. WASHINGTON MOCLDY    28  -4  24 NW15        N/A  WCI  17
$$

NYZ052-076-201100-
EASTERN NEW YORK

CITY           SKY/WX    TMP DP  RH WIND       PRES   REMARKS
ALBANY         CLOUDY    34  31  88 CALM      30.01F
NEW YORK CITY  CLOUDY    41  31  67 NE6       30.01F
$$

ANZALL-201100-
MARINE OBSERVATIONS

STATION/POSITION TIME  TEMP    WIND        PRES    VSBY  WAVE
                       AIR SEA DIR/SP/G                  HT/PER
                 (UTC) (F)     (DEG/KT/KT) (MB)    (MI)  (FT/S)
BOSTON BUOY      0850   42 44   10/  6/ 10 1015.0          4/10
BUZZARDS BAY     0900   39     350/  7/  8 1016.7S
NANTUCKET SOUND  0850   40 41  280/  8/ 10 1015.8          1/ 5
MASS BAY-STELLWA 0904   41 44   40/  6/  8 1015.2S  1 7/8  5/11
ISLE OF SHOALS   1000   38     360/  8/  9 1016.3R
S OF BLOCK IS    0955      47                N/A           4/10
$$

......................KEY.........................
  SKY/WX - SKY CONDITION/PRESENT WEATHER
  TMP    - TEMPERATURE IN FAHRENHEIT
  DWPT   - DEWPOINT IN FAHRENHEIT
  RH     - RELATIVE HUMIDITY IN PERCENT
  WIND   - DIRECTION AND SPEED IN MPH
  PRES   - MEAN SEA LEVEL PRESSURE IN INCHES OF HG
  WCI    - WIND CHILL INDEX
  VSB    - VISIBILITY IN MILES
  HX     - HEAT INDEX
  TC     - TEMPERATURE IN CELSIUS
  VRB    - VARIABLE WIND DIRECTION
  N/A    - NOT AVAILABLE




USA.gov is the U.S. government's official web portal to all federal, state and local government web resources and services.